[[{"header":{"parameterUnit":"m.s-1","parameterCategory":1,"la1":30.2992,"la2":30.254,"lo1":-89.0895,"lo2":-89.0443,"dy":0.0025,"dx":0.0025,"nx":19,"ny":19,"refTime":"2026-05-23T09:00:00:Z","depth":0,"parameterNumber":2,"parameterNumberName":"U-component_of_WINDS"},"data":[0,0,0,-4.2801,-4.2803,-4.2888,-4.2888,-4.3013,-4.3014,0,0,0,0,0,0,0,0,0,0,0,-4.2786,-4.2787,-4.28,-4.2803,-4.2888,-4.2888,-4.3013,-4.3014,0,0,0,0,0,0,0,0,0,0,0,-4.2785,-4.2787,-4.2788,-4.2803,-4.2888,-4.2888,-4.3013,-4.2942,0,0,0,0,0,0,0,0,0,0,-4.2857,-4.2854,-4.2787,-4.2789,-4.2804,-4.2888,-4.2888,-4.2939,-4.2947,-4.2982,0,-4.3017,0,-4.3018,-4.3024,-4.3025,0,0,0,-4.2795,-4.2847,-4.2861,-4.2789,-4.2805,-4.2887,-4.2847,-4.2943,-4.2952,-4.2993,-4.3018,-4.3023,-4.302,-4.3025,-4.3026,-4.326,-4.3261,0,0,-4.279,-4.2806,-4.2855,-4.2868,-4.2856,-4.2844,-4.285,-4.2948,-4.2977,-4.3019,-4.3025,-4.3022,-4.3026,-4.3027,-4.3258,-4.326,0,0,0,-4.2782,-4.2804,-4.2814,-4.2863,-4.2877,-4.2847,-4.2853,-4.2972,-4.2975,-4.3027,-4.3024,-4.3027,-4.3028,-4.3256,-4.3259,-4.3347,0,0,0,-4.2779,-4.2799,-4.2813,-4.2824,-4.2876,-4.2926,-4.2875,-4.2968,-4.2978,-4.3023,-4.3027,-4.303,-4.3255,-4.3258,-4.3341,-4.3385,0,0,0,-4.2777,-4.2798,-4.2815,-4.2824,-4.2862,-4.2924,-4.2931,-4.297,-4.2977,-4.3025,-4.303,-4.3254,-4.3257,-4.3336,-4.3376,-4.345,0,0,0,-4.2779,-4.2891,-4.2816,-4.2941,-4.2861,-4.2979,-4.2931,-4.3017,-4.3069,-4.3027,-4.3255,-4.3259,-4.3334,-4.337,-4.3445,-4.3514,-4.3545,0,0,-4.2929,-4.291,-4.2982,-4.2918,-4.3053,-4.2965,-4.3113,-4.3144,-4.3133,-4.3218,-4.3223,-4.3343,-4.3375,-4.3449,-4.3719,-4.3743,0,0,0,-4.3035,-4.3086,-4.3119,-4.317,-4.3198,-4.3225,-4.3232,-4.3244,-4.3316,-4.318,-4.3391,-4.341,-4.3452,-4.3484,-4.3505,-4.354,-4.3275,-4.3275,-4.3274,-4.3268,-4.325,-4.3368,-4.3362,-4.3412,-4.3421,-4.3459,-4.3477,-4.3442,-4.3493,-4.3517,-4.3683,-4.3721,-4.3737,-4.3773,-4.3555,-4.3555,-4.3555,-4.3556,-4.3484,-4.3553,-4.351,-4.3608,-4.359,-4.3672,-4.3686,-4.366,-4.3734,-4.3663,-4.3699,-4.362,-4.3765,-4.3796,-4.3562,-4.3561,-4.356,-4.3559,-4.3559,-4.3631,-4.3662,-4.3677,-4.3751,-4.381,-4.38,-4.3874,-4.3855,-4.3837,-4.3874,-4.3896,-4.3894,-4.3888,-4.3887,-4.3887,-4.3888,-4.3888,-4.3889,-4.3889,-4.3777,-4.3791,-4.3856,-4.3899,-4.393,-4.3969,-4.3983,-4.4013,-4.4041,-4.4021,-4.4021,-4.3982,-4.3784,-4.3732,-4.3898,-4.3896,-4.3895,-4.3894,-4.3894,-4.3996,-4.3945,-4.4044,-4.4077,-4.4126,-4.4187,-4.4164,-4.4228,-4.425,-4.4288,-4.4243,-4.4101,-4.4078,-4.4061,-4.4018,-4.4247,-4.4247,-4.4247,-4.4247,-4.4118,-4.4107,-4.4206,-4.4258,-4.4308,-4.4299,-4.4412,-4.4426,-4.443,-4.4444,-4.4409,-4.4352,-4.4336,-4.4323,-4.43,-4.426,-4.4545,-4.4546,-4.4546,-4.4251,-4.4245,-4.4344,-4.435,-4.4389,-4.4423,-4.4529,-4.4592,-4.4587,-4.4558,-4.4453,-4.4441,-4.4349,-4.432,-4.4283,-4.4248,-4.4173,0,0]},{"header":{"parameterUnit":"m.s-1","parameterCategory":1,"la1":30.2992,"la2":30.254,"lo1":-89.0895,"lo2":-89.0443,"dy":0.0025,"dx":0.0025,"nx":19,"ny":19,"refTime":"2026-05-23T09:00:00:Z","depth":0,"parameterNumber":3,"parameterNumberName":"V-component_of_WINDS"},"data":[0,0,0,2.7887,2.7888,2.7961,2.7961,2.8036,2.8037,0,0,0,0,0,0,0,0,0,0,0,2.7855,2.7855,2.7887,2.7888,2.7961,2.7961,2.8036,2.8037,0,0,0,0,0,0,0,0,0,0,0,2.7855,2.7855,2.7855,2.7889,2.796,2.7961,2.8036,2.7988,0,0,0,0,0,0,0,0,0,0,2.792,2.7881,2.7855,2.7855,2.7889,2.796,2.7961,2.7985,2.7991,2.7996,0,2.7999,0,2.8019,2.8041,2.8041,0,0,0,2.7896,2.7876,2.7905,2.7855,2.789,2.796,2.793,2.7989,2.7994,2.8003,2.8,2.8003,2.802,2.8041,2.8041,2.8051,2.8051,0,0,2.7892,2.7862,2.7901,2.7909,2.7897,2.7928,2.7932,2.7992,2.7987,2.8,2.8005,2.8021,2.8041,2.8042,2.8051,2.8051,0,0,0,2.7875,2.7859,2.7887,2.7905,2.7919,2.793,2.7935,2.7984,2.7996,2.8006,2.8022,2.8042,2.8043,2.8052,2.8051,2.8008,0,0,0,2.7873,2.785,2.7885,2.7867,2.7918,2.7953,2.7925,2.7992,2.7999,2.8022,2.8042,2.8043,2.8052,2.8051,2.801,2.7991,0,0,0,2.7854,2.7847,2.7854,2.7866,2.7896,2.7952,2.7968,2.7994,2.8009,2.8041,2.8043,2.8052,2.8052,2.8011,2.7994,2.7986,0,0,0,2.7824,2.7813,2.7853,2.7847,2.7895,2.7925,2.7968,2.7991,2.8014,2.8042,2.8052,2.8051,2.8012,2.7996,2.7987,2.7973,2.7964,0,0,2.7793,2.7808,2.7807,2.7845,2.7861,2.7916,2.7926,2.7974,2.8004,2.8034,2.8034,2.8009,2.7994,2.7986,2.7926,2.7919,0,0,0,2.7787,2.7786,2.7797,2.7818,2.7855,2.7886,2.7936,2.7955,2.7982,2.8013,2.8005,2.7997,2.7993,2.7988,2.7982,2.7981,2.8048,2.8048,2.8048,2.7699,2.774,2.7742,2.7791,2.7811,2.7865,2.7885,2.7919,2.7952,2.795,2.7958,2.7917,2.791,2.7905,2.7904,2.7955,2.7954,2.7954,2.7954,2.7657,2.7662,2.7711,2.7729,2.7773,2.7789,2.7841,2.7865,2.7886,2.7913,2.7912,2.7937,2.7896,2.7897,2.7951,2.7952,2.7952,2.7952,2.7953,2.7604,2.7613,2.7637,2.7673,2.7697,2.7748,2.7768,2.7807,2.7843,2.7842,2.7856,2.7857,2.7862,2.7846,2.7846,2.7846,2.7846,2.7846,2.7846,2.7538,2.7567,2.7578,2.762,2.764,2.7671,2.7727,2.7747,2.778,2.7807,2.7807,2.7841,2.7885,2.7895,2.7844,2.7844,2.7844,2.7844,2.7844,2.7479,2.7499,2.7517,2.7537,2.759,2.7612,2.7663,2.7702,2.7725,2.7733,2.777,2.7795,2.7813,2.7818,2.7826,2.7761,2.7761,2.7761,2.7761,2.7433,2.7446,2.7475,2.7505,2.7539,2.7587,2.7608,2.7652,2.7701,2.7718,2.7734,2.7749,2.7752,2.7768,2.7774,2.7782,2.7707,2.7707,2.7707,2.7399,2.7418,2.7427,2.7477,2.7522,2.7561,2.7581,2.7614,2.7674,2.7706,2.7733,2.7735,2.7759,2.7765,2.7794,2.7803,2.7819,0,0]}]]